Stations météo

Publicité
Lulea/Kallax, Suède (2186): Température de l'air & dewpoint: 20.09.2017 13:00:00 - 26.09.2017 13:00:00 (CEST)Lulea/Kallax, Suède (2186): Vitesse du vent & gusts: 20.09.2017 13:00:00 - 26.09.2017 13:00:00 (CEST)Lulea/Kallax, Suède (2186): Direction du vent: 20.09.2017 13:00:00 - 26.09.2017 13:00:00 (CEST)Lulea/Kallax, Suède (2186): reduced air pressure: 20.09.2017 13:00:00 - 26.09.2017 13:00:00 (CEST)Lulea/Kallax, Suède (2186): visibility: 20.09.2017 13:00:00 - 26.09.2017 13:00:00 (CEST)Lulea/Kallax, Suède (2186): Quantités de précipitations: 20.09.2017 13:00:00 - 26.09.2017 13:00:00 (CEST)
Date & Time tt [°C] td [°C] ff [km/h] ff [knt] fx [km/h] fx [knt] dd ppp [hPa] vv [km] rr [mm]
26.09.2017 13:00:00 - - - - - - - - - -
26.09.2017 12:00:00 11,1 7,0 11 6 18 10 S 1041,4 10 0,0
26.09.2017 11:00:00 10,4 6,7 8 4 22 12 SW 1041,6 10 0,0
26.09.2017 10:00:00 9,4 6,5 5 3 14 8 WSW 1041,6 10 0,0
26.09.2017 09:00:00 9,2 6,5 8 4 14 8 WSW 1041,5 10 0,0
26.09.2017 08:00:00 9,0 6,4 8 4 14 8 SW 1041,2 10 0,0
26.09.2017 07:00:00 9,0 6,4 5 3 11 6 SW 1041,0 10 0,0
26.09.2017 06:00:00 8,9 6,5 5 3 11 6 SW 1040,9 10 0,0
26.09.2017 05:00:00 8,9 6,7 8 4 14 8 W 1041,0 10 0,0
26.09.2017 04:00:00 9,0 6,8 9 5 14 8 WSW 1041,0 10 0,0
26.09.2017 03:00:00 9,3 7,4 11 6 14 8 SW 1040,9 10 0,0
26.09.2017 02:00:00 9,5 7,8 8 4 14 8 WSW 1040,8 10 0,0
26.09.2017 01:00:00 9,6 8,5 4 2 14 8 - 1041,0 10 0,0
26.09.2017 00:00:00 9,4 8,8 8 4 14 8 SSW 1041,0 9 0,0
25.09.2017 23:00:00 9,4 8,6 8 4 11 6 SSW 1040,8 10 0,0
25.09.2017 22:00:00 9,6 8,5 8 4 14 8 SSW 1040,9 10 0,0
25.09.2017 21:00:00 9,7 8,6 8 4 18 10 SSW 1041,0 10 0,0
25.09.2017 20:00:00 9,6 8,7 5 3 18 10 S 1040,8 10 0,0
25.09.2017 19:00:00 9,6 8,5 4 2 11 6 - 1040,8 10 0,0
25.09.2017 18:00:00 9,7 8,5 5 3 14 8 S 1040,9 10 0,0
25.09.2017 17:00:00 9,8 8,7 9 5 14 8 S 1040,9 10 0,0
25.09.2017 16:00:00 9,6 8,5 9 5 14 8 SSW 1040,9 10 0,0
25.09.2017 15:00:00 9,6 8,5 8 4 22 12 SSW 1040,9 10 0,0
25.09.2017 14:00:00 9,9 8,8 8 4 14 8 S 1041,2 10 0,0
25.09.2017 13:00:00 10,0 8,9 4 2 11 6 - 1041,4 10 0,0
25.09.2017 12:00:00 10,0 9,2 4 2 11 6 - 1041,4 9 0,0
25.09.2017 11:00:00 9,4 8,8 4 2 11 6 - 1041,4 6 0,0
25.09.2017 10:00:00 9,4 8,5 2 1 7 4 - 1041,4 10 0,0
25.09.2017 09:00:00 9,2 8,4 2 1 4 2 - 1041,2 10 0,0
25.09.2017 08:00:00 8,9 8,6 0 0 4 2 N 1040,9 10 0,0
25.09.2017 07:00:00 8,6 8,2 4 2 7 4 NE 1040,8 8 0,0
25.09.2017 06:00:00 8,5 8,2 5 3 7 4 NW 1040,8 5 0,0
25.09.2017 05:00:00 8,6 8,3 5 3 7 4 WNW 1040,9 4,2 0,0
25.09.2017 04:00:00 8,7 8,4 5 3 7 4 NNW 1040,6 7 0,0
25.09.2017 03:00:00 8,9 8,6 4 2 7 4 NW 1040,8 7 0,0
25.09.2017 02:00:00 8,9 8,6 5 3 7 4 NW 1040,8 3,9 0,0
25.09.2017 01:00:00 9,1 8,8 4 2 7 4 WNW 1040,9 5 0,0
25.09.2017 00:00:00 9,0 8,5 0 0 4 2 N 1040,6 4,7 0,0
24.09.2017 23:00:00 9,2 8,7 0 0 7 4 N 1040,5 5 0,0
24.09.2017 22:00:00 9,2 8,7 0 0 7 4 N 1040,3 6 0,0
24.09.2017 21:00:00 9,2 8,7 0 0 4 2 N 1040,2 4,5 0,0
24.09.2017 20:00:00 9,1 8,5 0 0 7 4 N 1039,9 6 0,0
24.09.2017 19:00:00 9,4 8,3 4 2 11 6 - 1039,6 10 0,0
24.09.2017 18:00:00 9,6 8,0 8 4 14 8 E 1039,4 10 0,0
24.09.2017 17:00:00 10,1 8,4 5 3 14 8 E 1039,0 10 0,0
24.09.2017 16:00:00 10,4 8,7 5 3 11 6 ESE 1039,1 10 0,0
24.09.2017 15:00:00 10,8 8,6 4 2 11 6 - 1039,0 10 0,0
24.09.2017 14:00:00 10,8 9,2 4 2 4 2 SSE 1039,0 10 0,0
24.09.2017 13:00:00 10,2 9,4 5 3 11 6 SSE 1038,9 9 0,0
24.09.2017 12:00:00 10,1 9,3 9 5 11 6 SSE 1038,6 10 0,0
24.09.2017 11:00:00 10,8 9,9 4 2 7 4 SSE 1038,3 10 0,0
24.09.2017 10:00:00 10,4 9,9 2 1 7 4 ESE 1037,9 10 0,0
24.09.2017 09:00:00 9,9 9,6 0 0 0 0 N 1037,5 7 0,0
24.09.2017 08:00:00 9,6 9,3 0 0 0 0 N 1037,1 4,0 0,0
24.09.2017 07:00:00 9,5 9,2 0 0 0 0 N 1036,7 4,0 0,0
24.09.2017 06:00:00 9,3 9,0 0 0 0 0 N 1036,3 2,8 0,0
24.09.2017 05:00:00 9,3 9,0 0 0 4 2 N 1036,0 4,0 0,0
24.09.2017 04:00:00 9,3 8,8 0 0 7 4 N 1035,8 7 0,0
24.09.2017 03:00:00 9,2 8,9 2 1 7 4 SSE 1035,4 7 0,0
24.09.2017 02:00:00 9,5 9,0 4 2 7 4 S 1035,3 8 0,0
24.09.2017 01:00:00 9,4 8,9 2 1 4 2 SSE 1035,1 6 0,0
24.09.2017 00:00:00 9,3 8,8 0 0 4 2 N 1035,0 10 0,0
23.09.2017 23:00:00 9,5 9,0 0 0 4 2 N 1034,7 10 0,0
23.09.2017 22:00:00 9,5 8,9 0 0 7 4 N 1034,3 10 0,0
23.09.2017 21:00:00 9,6 9,0 4 2 11 6 - 1034,0 10 0,0
23.09.2017 20:00:00 9,4 8,8 8 4 11 6 SSE 1033,7 10 0,0
23.09.2017 19:00:00 9,6 9,0 5 3 7 4 S 1033,4 10 0,0
23.09.2017 18:00:00 9,8 9,2 4 2 11 6 S 1033,1 9 0,0
23.09.2017 17:00:00 9,7 9,1 8 4 14 8 SSE 1032,9 4,8 0,0
23.09.2017 16:00:00 10,3 9,1 8 4 14 8 SSE 1032,7 10 0,0
23.09.2017 15:00:00 10,4 9,0 9 5 18 10 SSE 1032,6 10 0,0
23.09.2017 14:00:00 10,6 9,0 11 6 18 10 SSE 1032,5 10 0,0
23.09.2017 13:00:00 10,3 8,7 11 6 18 10 SE 1032,8 10 0,0
23.09.2017 12:00:00 10,1 8,5 9 5 14 8 SE 1032,7 10 0,0
23.09.2017 11:00:00 9,9 8,2 9 5 14 8 SE 1032,6 10 0,0
23.09.2017 10:00:00 9,8 8,2 8 4 14 8 ESE 1032,6 10 0,0
23.09.2017 09:00:00 9,8 7,9 11 6 18 10 SE 1032,2 10 0,0
23.09.2017 08:00:00 9,6 7,7 15 8 18 10 SSE 1032,1 10 0,0
23.09.2017 07:00:00 9,4 7,7 11 6 14 8 SE 1032,2 10 0,0
23.09.2017 06:00:00 9,4 8,0 11 6 14 8 ESE 1031,9 45 0,0
23.09.2017 05:00:00 8,9 8,3 5 3 14 8 ESE 1032,4 10 0,0
23.09.2017 04:00:00 8,7 8,1 5 3 7 4 ENE 1032,4 10 0,0
23.09.2017 03:00:00 8,3 7,7 4 2 7 4 NE 1032,6 10 0,0
23.09.2017 02:00:00 7,8 7,2 0 0 7 4 N 1032,8 10 0,0
23.09.2017 01:00:00 7,6 7,0 0 0 7 4 N 1032,5 10 0,0
23.09.2017 00:00:00 7,7 6,9 8 4 11 6 SE 1032,1 10 0,0
22.09.2017 23:00:00 7,8 7,0 9 5 14 8 SE 1032,2 10 0,0
22.09.2017 22:00:00 7,7 6,8 8 4 14 8 S 1031,8 10 0,0
22.09.2017 21:00:00 7,8 7,0 8 4 14 8 SE 1032,0 10 0,0
22.09.2017 20:00:00 8,3 7,2 11 6 18 10 SSE 1031,6 10 0,0
22.09.2017 19:00:00 8,7 7,5 13 7 18 10 SE 1031,6 10 0,0
22.09.2017 18:00:00 9,0 7,8 15 8 22 12 SE 1031,3 10 0,0
22.09.2017 17:00:00 9,4 8,0 15 8 22 12 SSE 1031,4 10 0,0
22.09.2017 16:00:00 10,0 8,3 16 9 22 12 SSE 1031,3 10 0,0
22.09.2017 15:00:00 9,9 8,3 13 7 22 12 SSE 1031,3 10 0,0
22.09.2017 14:00:00 9,8 8,6 15 8 25 14 S 1031,5 10 0,0
22.09.2017 13:00:00 10,3 8,9 16 9 22 12 SSE 1031,2 10 0,0
22.09.2017 12:00:00 10,5 9,1 15 8 25 14 S 1031,1 10 0,0
22.09.2017 11:00:00 10,4 9,2 16 9 29 16 SSE 1031,2 10 0,0
22.09.2017 10:00:00 10,5 9,3 15 8 22 12 S 1031,1 10 0,0
22.09.2017 09:00:00 10,4 9,3 13 7 22 12 SSE 1030,9 10 0,0
22.09.2017 08:00:00 10,2 9,1 16 9 25 14 S 1030,9 10 0,0
22.09.2017 07:00:00 10,2 9,3 15 8 25 14 S 1031,0 10 0,0
22.09.2017 06:00:00 10,3 9,5 15 8 25 14 S 1030,8 10 0,0
22.09.2017 05:00:00 10,3 9,5 16 9 25 14 S 1030,9 10 0,1
22.09.2017 04:00:00 10,3 9,5 16 9 25 14 S 1031,0 10 0,1
22.09.2017 03:00:00 10,4 9,6 18 10 25 14 SSE 1031,2 10 0,3
22.09.2017 02:00:00 10,2 9,6 21 11 25 14 SE 1031,4 10 0,0
22.09.2017 01:00:00 10,0 9,4 21 11 22 12 SE 1031,6 10 0,0
22.09.2017 00:00:00 10,0 9,2 21 11 25 14 SSE 1031,6 10 0,0
21.09.2017 23:00:00 10,0 9,1 22 12 29 16 SSE 1031,5 10 0,0
21.09.2017 22:00:00 9,8 8,9 21 11 29 16 SSE 1031,5 10 0,0
21.09.2017 21:00:00 9,7 8,5 22 12 29 16 SE 1031,4 10 0,0
21.09.2017 20:00:00 9,6 8,4 18 10 32 18 SE 1031,3 10 0,0
21.09.2017 19:00:00 9,3 7,9 26 14 32 18 SE 1031,2 10 0,0
21.09.2017 18:00:00 9,3 8,0 21 11 32 18 SE 1031,2 10 0,0
21.09.2017 17:00:00 9,0 7,6 18 10 29 16 SE 1031,2 10 0,0
21.09.2017 16:00:00 9,0 7,1 18 10 29 16 ESE 1031,3 10 0,0
21.09.2017 15:00:00 9,0 7,0 18 10 29 16 ESE 1031,2 10 0,0
21.09.2017 14:00:00 8,6 6,7 24 13 32 18 ESE 1031,2 10 0,0
21.09.2017 13:00:00 8,5 6,6 18 10 32 18 ESE 1031,2 10 0,0
21.09.2017 12:00:00 8,3 6,6 21 11 32 18 ESE 1031,3 10 0,0
21.09.2017 11:00:00 8,1 6,6 18 10 29 16 ESE 1030,9 10 0,0
21.09.2017 10:00:00 8,2 6,8 18 10 29 16 ESE 1030,4 10 0,0
21.09.2017 09:00:00 8,2 7,0 15 8 22 12 SE 1030,1 10 0,0
21.09.2017 08:00:00 7,6 6,9 13 7 22 12 ESE 1029,8 7 0,1
21.09.2017 07:00:00 7,3 6,4 8 4 22 12 ESE 1029,6 10 0,2
21.09.2017 06:00:00 6,9 5,8 11 6 18 10 E 1029,3 10 0,4
21.09.2017 05:00:00 6,8 5,7 11 6 25 14 ESE 1029,0 10 0,3
21.09.2017 04:00:00 7,1 5,4 11 6 22 12 E 1029,0 10 0,0
21.09.2017 03:00:00 7,0 5,3 13 7 25 14 E 1028,8 10 0,0
21.09.2017 02:00:00 6,7 5,3 15 8 25 14 E 1028,8 10 0,3
21.09.2017 01:00:00 7,0 5,1 15 8 32 18 E 1028,6 10 0,3
21.09.2017 00:00:00 7,3 4,9 18 10 32 18 E 1028,3 10 0,0
20.09.2017 23:00:00 7,6 4,7 15 8 29 16 E 1028,0 10 0,0
20.09.2017 22:00:00 6,7 4,9 13 7 32 18 ENE 1027,9 10 0,2
20.09.2017 21:00:00 6,9 4,6 11 6 22 12 ENE 1027,7 10 0,2
20.09.2017 20:00:00 5,9 4,4 8 4 25 14 ENE 1027,7 7 2,0
20.09.2017 19:00:00 6,1 3,8 11 6 22 12 NE 1027,4 10 0,1
20.09.2017 18:00:00 6,5 3,3 15 8 29 16 ENE 1027,3 10 0,0
20.09.2017 17:00:00 6,5 3,1 16 9 32 18 ENE 1026,9 10 0,3
20.09.2017 16:00:00 7,0 2,9 13 7 29 16 NE 1026,8 10 0,0
20.09.2017 15:00:00 7,5 3,0 9 5 25 14 NE 1026,5 10 0,2
20.09.2017 14:00:00 6,6 2,5 13 7 29 16 NE 1026,6 10 0,0
20.09.2017 13:00:00 6,9 1,6 13 7 29 16 ENE 1026,6 10 0,0

tt = Température de l'air
td = dewpoint
ff = Vitesse du vent
fx = gusts
dd = Direction du vent
ppp = reduced air pressure
vv = visibility
rr = Quantités de précipitations

stations d'obs. à proximité